Weather History for Poplar Bluff, MO

Change the Weather History Date:

Friday, January 31, 2014

  Actual Average Record
Temperature  
Mean Temperature 33 °F -  
Max Temperature 42 °F 45 °F 68 °F (1924)
Min Temperature 24 °F 24 °F 2 °F (1936)
Degree Days  
Heating Degree Days 32    
Moisture  
Dew Point 28 °F    
Average Humidity 76    
Maximum Humidity 89    
Minimum Humidity 41    
Precipitation  
Precipitation 0.11 in - - ()
Sea Level Pressure  
Sea Level Pressure 30.02 in    
Wind  
Wind Speed 4 mph (ENE)    
Max Wind Speed 8 mph    
Max Gust Speed -    
Visibility 5 miles    
Events Rain , Snow    
Averages and records for this station are not official NWS values.
T = Trace of Precipitation, MM = Missing Value Source: NWS Daily Summary

Daily Weather History Graph

Daily Weather History Graph

Search for Another Location

Airport:

Trip Planner

Search our weather history database for the weather conditions in past years. The results will help you decide how hot, cold, wet, or windy it might be!

Date:

Astronomy

Jan. 31, 2014 Rise Set
Actual Time 7:04 AM CST 5:25 PM CST
Civil Twilight 6:36 AM CST 5:53 PM CST
Nautical Twilight 6:05 AM CST 6:24 PM CST
Astronomical Twilight 5:35 AM CST 6:54 PM CST
Moon 7:16 AM CST (1/31) 6:46 PM CST (1/31)
Length of Visible Light 11h 16m
Length of Day
10h 21m
New Moon, 1% of the Moon is Illuminated
Jan 31
New Moon
Feb 6
First Quarter
Feb 14
Full
Feb 22
Last Quarter
Mar 1
New

Hourly Weather History & Observations

Time (CST) Temp. Windchill Dew Point Humidity Pressure Visibility Wind Dir Wind Speed Gust Speed Precip Events Conditions
12:53 AM 32.0 °F 27.5 °F 12.0 °F 44% 30.02 in 10.0 mi SSW 4.6 mph - N/A   Clear
1:53 AM 27.0 °F - 18.0 °F 69% 30.03 in 10.0 mi Calm Calm - N/A   Clear
2:53 AM 26.1 °F - 17.1 °F 69% 30.04 in 10.0 mi Calm Calm - N/A   Clear
3:53 AM 25.0 °F - 17.1 °F 72% 30.04 in 10.0 mi Calm Calm - N/A   Clear
4:53 AM 24.1 °F - 16.0 °F 71% 30.04 in 10.0 mi Calm Calm - N/A   Clear
5:53 AM 26.1 °F - 18.0 °F 71% 30.06 in 10.0 mi Calm Calm - N/A   Mostly Cloudy
6:53 AM 28.9 °F - 19.9 °F 69% 30.06 in 10.0 mi Calm Calm - N/A   Overcast
7:53 AM 30.0 °F 26.5 °F 19.9 °F 66% 30.06 in 10.0 mi ENE 3.5 mph - N/A   Overcast
8:53 AM 35.1 °F - 21.0 °F 57% 30.08 in 10.0 mi Calm Calm - N/A   Overcast
9:53 AM 37.0 °F 32.4 °F 23.0 °F 57% 30.10 in 10.0 mi North 5.8 mph - N/A   Overcast
10:46 AM 37.9 °F 34.4 °F 23.0 °F 55% 30.06 in 10.0 mi ENE 4.6 mph - N/A   Overcast
10:53 AM 37.9 °F 34.4 °F 23.0 °F 55% 30.08 in 10.0 mi NE 4.6 mph - N/A   Overcast
11:01 AM 37.9 °F 34.4 °F 23.0 °F 55% 30.06 in 10.0 mi ENE 4.6 mph - N/A   Overcast
11:11 AM 39.0 °F 36.8 °F 23.0 °F 53% 30.06 in 10.0 mi ENE 3.5 mph - N/A   Overcast
11:53 AM 42.1 °F 37.1 °F 19.9 °F 41% 30.05 in 10.0 mi SE 8.1 mph - N/A   Overcast
12:53 PM 39.0 °F 34.0 °F 30.0 °F 70% 30.04 in 5.0 mi South 6.9 mph - N/A   Haze
1:01 PM 37.9 °F 33.5 °F 30.9 °F 76% 30.01 in 4.0 mi South 5.8 mph - 0.00 in Rain Light Rain
1:11 PM 37.9 °F 33.5 °F 32.0 °F 79% 30.01 in 1.8 mi SSE 5.8 mph - 0.00 in Rain Light Rain
1:18 PM 37.0 °F 34.5 °F 32.0 °F 82% 30.01 in 3.0 mi SE 3.5 mph - 0.01 in Rain Light Rain
1:26 PM 37.0 °F 33.3 °F 32.0 °F 82% 30.00 in 1.8 mi SE 4.6 mph - 0.01 in   Haze
1:50 PM 37.4 °F 33.8 °F 33.8 °F 87% 29.99 in 1.0 mi SE 4.6 mph - 0.02 in Snow Light Snow
1:53 PM 37.0 °F 34.5 °F 33.1 °F 86% 30.01 in 1.0 mi ESE 3.5 mph - 0.02 in   Overcast
2:00 PM 37.0 °F 33.3 °F 33.1 °F 86% 29.99 in 1.5 mi SE 4.6 mph - 0.00 in   Overcast
2:50 PM 37.4 °F 33.8 °F 33.8 °F 87% 29.99 in 1.5 mi East 4.6 mph - 0.02 in Rain Light Rain
2:53 PM 37.0 °F 33.3 °F 33.1 °F 86% 30.01 in 1.5 mi ENE 4.6 mph - 0.02 in Rain Light Rain
3:53 PM 37.0 °F 32.4 °F 33.1 °F 86% 30.01 in 1.2 mi East 5.8 mph - 0.03 in Rain Light Rain
4:13 PM 37.0 °F 31.6 °F 33.1 °F 86% 29.99 in 1.5 mi East 6.9 mph - 0.01 in Rain Light Rain
4:53 PM 37.0 °F 32.4 °F 32.0 °F 82% 30.01 in 2.0 mi ENE 5.8 mph - 0.02 in   Overcast
5:06 PM 37.0 °F 32.4 °F 32.0 °F 82% 30.00 in 1.8 mi ENE 5.8 mph - 0.00 in   Overcast
5:19 PM 37.0 °F 32.4 °F 32.0 °F 82% 30.00 in 2.0 mi East 5.8 mph - 0.01 in   Overcast
5:33 PM 37.0 °F 32.4 °F 32.0 °F 82% 29.99 in 2.0 mi East 5.8 mph - 0.01 in   Overcast
5:53 PM 37.0 °F 32.4 °F 32.0 °F 82% 30.01 in 3.0 mi ENE 5.8 mph - 0.01 in   Haze
6:53 PM 36.0 °F 31.1 °F 32.0 °F 86% 30.00 in 3.0 mi East 5.8 mph - 0.01 in   Overcast
7:08 PM 36.0 °F 31.1 °F 32.0 °F 86% 29.98 in 2.5 mi ENE 5.8 mph - N/A   Overcast
7:53 PM 36.0 °F 33.3 °F 33.1 °F 89% 30.00 in 2.5 mi NE 3.5 mph - N/A   Overcast
8:16 PM 36.0 °F 32.1 °F 32.0 °F 86% 29.98 in 1.5 mi North 4.6 mph - N/A   Overcast
8:46 PM 36.0 °F 33.3 °F 32.0 °F 86% 29.98 in 2.0 mi NNE 3.5 mph - N/A   Overcast
8:53 PM 36.0 °F 33.3 °F 32.0 °F 86% 29.99 in 2.0 mi NE 3.5 mph - N/A   Overcast
9:40 PM 36.0 °F 32.1 °F 33.1 °F 89% 29.96 in 2.5 mi NE 4.6 mph - N/A   Overcast
9:53 PM 36.0 °F 31.1 °F 32.0 °F 86% 29.97 in 2.0 mi NNE 5.8 mph - N/A   Overcast
10:44 PM 37.0 °F 32.4 °F 33.1 °F 86% 29.96 in 3.0 mi North 5.8 mph - N/A   Overcast
10:53 PM 37.0 °F 33.3 °F 33.1 °F 86% 29.97 in 3.0 mi NNE 4.6 mph - N/A   Overcast
11:54 PM 37.0 °F 33.3 °F 33.1 °F 86% 29.96 in - NNE 4.6 mph - N/A   Unknown